Regional Weather Roundup
Issued by NWS

Home | Current Version | Previous Version | Graphics & Text | Print | Product List | Glossary On
Versions: 1 2 3 4 5 6 7 8 9 10 11 12 13 14 15 16 17 18 19 20 21 22 23 24 25 26 27 28 29 30 31 32 33 34 35 36 37 38 39 40 41 42 43 44 45 46 47 48 49 50
000
ASUS43 KBIS 010302
RWRND

NORTH DAKOTA REGIONAL WEATHER ROUNDUP
NATIONAL WEATHER SERVICE BISMARCK ND
1000 PM CDT TUE JUN 30 2015

NOTE: "FAIR" INDICATES FEW OR NO CLOUDS BELOW 12,000 FEET WITH NO
SIGNIFICANT WEATHER AND/OR OBSTRUCTIONS TO VISIBILITY.


NDZ001>003-009>011-017-010400-
NORTHWEST NORTH DAKOTA

CITY           SKY/WX    TMP DP  RH WIND       PRES   REMARKS
WILLISTON      MOCLDY    68  59  73 E12       29.90F HAZE
MINOT          CLOUDY    66  64  93 CALM      29.90F FOG
MINOT AFB      LGT RAIN  66  66 100 E2        29.89F FOG
$$

NDZ018>021-031>035-040>046-010400-
SOUTHWEST NORTH DAKOTA

CITY           SKY/WX    TMP DP  RH WIND       PRES   REMARKS
BISMARCK       CLOUDY    69  65  86 NE8       29.89R
DICKINSON      TSTM      67  59  75 NW15G37   29.91R
GARRISON         N/A     64  61  90 CALM      29.93S
HETTINGER ARPT LGT RAIN  70  66  87 S12       29.86F FOG
$$

NDZ004>008-012>016-024-026-027-054-010400-
NORTHEAST NORTH DAKOTA

CITY           SKY/WX    TMP DP  RH WIND       PRES   REMARKS
GRAND FORKS    CLOUDY    66  61  84 CALM      29.91R
GRND FRKS AFB  CLOUDY    65  61  86 SW2       29.92R
DEVILS LAKE    CLOUDY    66  57  72 SE8       29.92S
$$

NDZ022-023-025-028>030-036>039-047>053-010400-
SOUTHEAST NORTH DAKOTA

CITY           SKY/WX    TMP DP  RH WIND       PRES   REMARKS
FARGO          CLOUDY    68  62  81 E5        29.91R
JAMESTOWN      MOCLDY    67  60  78 E8        29.90S
$$



USA.gov is the U.S. government's official web portal to all federal, state and local government web resources and services.